Location: Demmingen
(48.6757°N, 10.4375°E)
Time: 03:20:12
(UTC+00:00)

FENGYUN 3A - Pass Details

Date: 23 May 2024
Orbit: 821 x 835 km, 98.6° (Epoch: 13 June)

Event Time Altitude Azimuth Distance (km) Brightness Sun altitude
Rises 02:14:24 0° 11° (NNE) 3,372 8.0 -10.0°
Reaches altitude 10° 02:16:47 10° 9° (N) 2,433 7.0 -9.7°
Maximum altitude 02:22:06 62° 290° (WNW) 923 3.8 -9.1°
Drops below altitude 10° 02:27:21 10° 210° (SSW) 2,414 5.5 -8.5°
Enters shadow 02:27:28 - 210° (SSW) 2,458 5.5 -8.5°
